Kiana, AK

5:56 PM AKDT on April 21, 2018 (GMT -0800)
Baker Memorial

Weather History for PAIK - November, 2012

Change the Weather History Date:

Thursday, November 15, 2012

  Actual Average (PASK) Record (PASK)
Temperature  
Mean Temperature 10 °F -  
Max Temperature 5 °F 14 °F 35 °F (2000)
Min Temperature 3 °F 4 °F -23 °F (2007)
Degree Days  
Heating Degree Days 56    
Moisture  
Dew Point 1 °F    
Average Humidity 65    
Maximum Humidity 80    
Minimum Humidity 51    
Precipitation  
Precipitation 0.00 in - - ()
Sea Level Pressure  
Sea Level Pressure 30.38 in    
Wind  
Wind Speed 10 mph (NNW)    
Max Wind Speed 16 mph    
Max Gust Speed 21 mph    
Visibility 10 miles    
Events      
Averages and records for this station are not official NWS values.
T = Trace of Precipitation, MM = Missing Value Source: NWS Daily Summary

Daily Weather History Graph

Daily Weather History Graph

Search for Another Location

Airport or City:

Astronomy

Nov. 15, 2012 Rise Set
Actual Time 10:43 AM AKST 4:08 PM AKST
Civil Twilight 9:30 AM AKST 5:21 PM AKST
Nautical Twilight 8:20 AM AKST 6:30 PM AKST
Astronomical Twilight 7:17 AM AKST 7:33 PM AKST
Moon 1:48 PM AKST (11/15) 5:17 PM AKST (11/15)
Length of Visible Light 7h 50m
Length of Day
5h 24m
Waxing Crescent, 6% of the Moon is Illuminated
Nov 15
Waxing Crescent
Nov 20
First Quarter
Nov 28
Full
Dec 6
Last Quarter
Dec 12
New

Hourly Weather History & Observations

Time (AKST) Temp. Windchill Dew Point Humidity Pressure Visibility Wind Dir Wind Speed Gust Speed Precip Events Conditions
12:01 AM 12.0 °F -1.3 °F -2.0 °F 53% 30.26 in 10.0 mi North 10.4 mph 17.3 mph N/A   Clear
1:01 AM 12.0 °F -2.0 °F -2.0 °F 53% 30.27 in 10.0 mi NNW 11.5 mph - N/A   Clear
2:01 AM 12.9 °F 0.7 °F -2.0 °F 51% 30.28 in 10.0 mi NNW 9.2 mph - N/A   Clear
3:01 AM 12.0 °F -0.4 °F -0.9 °F 56% 30.30 in 10.0 mi NNW 9.2 mph - N/A   Clear
4:01 AM 10.9 °F -1.8 °F -0.0 °F 61% 30.32 in 10.0 mi NNW 9.2 mph - N/A   Clear
5:01 AM 12.0 °F -0.4 °F 1.0 °F 61% 30.33 in 10.0 mi NNW 9.2 mph 18.4 mph N/A   Clear
6:01 AM 12.9 °F 0.7 °F 1.9 °F 62% 30.33 in 10.0 mi NNW 9.2 mph 19.6 mph N/A   Clear
7:01 AM 12.0 °F -3.4 °F 1.9 °F 64% 30.35 in 10.0 mi NNW 13.8 mph - N/A   Clear
8:01 AM 12.9 °F -0.2 °F 3.0 °F 65% 30.35 in 10.0 mi North 10.4 mph 19.6 mph N/A   Clear
9:01 AM 12.9 °F -1.6 °F 3.0 °F 65% 30.37 in 10.0 mi NNW 12.7 mph - N/A   Clear
10:01 AM 12.9 °F -0.2 °F 3.0 °F 65% 30.38 in 9.0 mi NNW 10.4 mph - N/A   Clear
11:01 AM 14.0 °F -2.0 °F 3.9 °F 64% 30.39 in 10.0 mi NNW 16.1 mph 20.7 mph N/A   Clear
12:01 PM 16.0 °F 2.9 °F 3.9 °F 59% 30.40 in 10.0 mi NNW 11.5 mph 20.7 mph N/A   Clear
1:01 PM 16.0 °F 3.6 °F 3.9 °F 59% 30.41 in 10.0 mi NNW 10.4 mph - N/A   Clear
2:01 PM 16.0 °F 1.7 °F 3.9 °F 59% 30.40 in 10.0 mi NNW 13.8 mph - N/A   Clear
3:01 PM 15.1 °F 1.8 °F 3.9 °F 61% 30.42 in 10.0 mi NNW 11.5 mph - N/A   Clear
4:01 PM 12.9 °F -0.9 °F 3.0 °F 65% 30.42 in 10.0 mi NNW 11.5 mph - N/A   Clear
5:01 PM 12.0 °F -2.7 °F 3.0 °F 67% 30.42 in 10.0 mi NNW 12.7 mph - N/A   Clear
6:01 PM 12.0 °F 0.5 °F 3.0 °F 67% 30.43 in 10.0 mi NNW 8.1 mph - N/A   Clear
7:01 PM 8.1 °F - 1.0 °F 73% 30.43 in 10.0 mi Calm Calm - N/A   Clear
8:01 PM 5.0 °F -4.1 °F -0.0 °F 80% 30.44 in 10.0 mi East 4.6 mph - N/A   Clear
9:01 PM 3.9 °F - -0.9 °F 80% 30.45 in 10.0 mi Calm Calm - N/A   Clear
10:01 PM 3.0 °F - -2.0 °F 80% 30.45 in 10.0 mi Calm Calm - N/A   Clear
11:01 PM 3.9 °F - -0.9 °F 80% 30.46 in 10.0 mi Calm Calm - N/A   Clear